Location: Unspecified
(49.2170°N, 0.0000°E)
Time: 15:38:32
(UTC+00:00)

Tiros 1 despin weight - Pass Details

Date: 21 January 2021
Orbit: 593 x 642 km, 48.2° (Epoch: 07 March)

Event Time Altitude Azimuth Distance (km) Brightness Sun altitude
Rises 21:09:09 0° 281° (W) 2,840 ? -43.3°
Enters shadow 21:10:17 - 277° (W) 2,434 ? -43.5°
Reaches altitude 10° 21:11:48 10° 267° (W) 1,930 - -43.7°
Maximum altitude 21:15:17 23° 215° (SW) 1,267 - -44.2°
Drops below altitude 10° 21:18:46 10° 162° (SSE) 1,917 - -44.7°
Sets 21:21:23 0° 148° (SSE) 2,816 - -45.1°
